Time,TemperatureF,DewpointF,PressureIn,WindDirection,WindDirectionDegrees,WindSpeedMPH,WindSpeedGustMPH,Humidity,HourlyPrecipIn,Conditions,Clouds,dailyrainin,SolarRadiationWatts/m^2,SoftwareType,DateUTC
2013-03-09 00:11:00,53.0,35.0,-100.00,SW,229,8.0,17.0,50,0.00,,,0.05,0.000000,,2013-03-09 08:11:00,
2013-03-09 00:21:00,53.0,35.0,-100.00,SW,229,8.0,17.0,50,0.00,,,0.05,0.000000,,2013-03-09 08:21:00,
2013-03-09 00:31:00,53.0,35.0,-100.00,SW,229,8.0,17.0,50,0.00,,,0.05,0.000000,,2013-03-09 08:31:00,
2013-03-09 00:41:00,53.0,35.0,-100.00,SW,229,8.0,17.0,50,0.00,,,0.05,0.000000,,2013-03-09 08:41:00,
2013-03-09 01:11:00,53.0,35.0,-100.00,South,171,5.0,13.0,50,0.00,,,0.05,0.000000,,2013-03-09 09:11:00,
2013-03-09 01:21:00,53.0,35.0,-100.00,South,171,5.0,13.0,50,0.00,,,0.05,0.000000,,2013-03-09 09:21:00,
2013-03-09 01:31:00,53.0,35.0,-100.00,South,171,5.0,13.0,50,0.00,,,0.05,0.000000,,2013-03-09 09:31:00,
2013-03-09 01:41:00,53.0,35.0,-100.00,South,171,5.0,13.0,50,0.00,,,0.05,0.000000,,2013-03-09 09:41:00,
2013-03-09 02:11:00,52.0,34.0,-100.00,SE,129,4.0,12.0,51,0.00,,,0.05,0.000000,,2013-03-09 10:11:00,
2013-03-09 02:21:00,52.0,34.0,-100.00,SE,129,4.0,12.0,51,0.00,,,0.05,0.000000,,2013-03-09 10:21:00,
2013-03-09 02:31:00,52.0,34.0,-100.00,SE,129,4.0,12.0,51,0.00,,,0.05,0.000000,,2013-03-09 10:31:00,
2013-03-09 02:41:00,52.0,34.0,-100.00,SE,129,4.0,12.0,51,0.00,,,0.05,0.000000,,2013-03-09 10:41:00,
2013-03-09 03:11:00,51.0,34.0,-100.00,SSW,193,4.0,7.0,51,0.00,,,0.05,0.000000,,2013-03-09 11:11:00,
2013-03-09 03:21:00,51.0,34.0,-100.00,SSW,193,4.0,7.0,51,0.00,,,0.05,0.000000,,2013-03-09 11:21:00,
2013-03-09 03:32:00,51.0,34.0,-100.00,SSW,193,4.0,7.0,51,0.00,,,0.05,0.000000,,2013-03-09 11:32:00,
2013-03-09 03:41:00,51.0,34.0,-100.00,SSW,193,4.0,7.0,51,0.00,,,0.05,0.000000,,2013-03-09 11:41:00,
2013-03-09 04:11:00,51.0,35.0,-100.00,SE,135,4.0,7.0,54,0.00,,,0.05,0.000000,,2013-03-09 12:11:00,
2013-03-09 04:21:00,51.0,35.0,-100.00,SE,135,4.0,7.0,54,0.00,,,0.05,0.000000,,2013-03-09 12:21:00,
2013-03-09 04:32:00,51.0,35.0,-100.00,SE,135,4.0,7.0,54,0.00,,,0.05,0.000000,,2013-03-09 12:32:00,
2013-03-09 04:42:00,51.0,35.0,-100.00,SE,135,4.0,7.0,54,0.00,,,0.05,0.000000,,2013-03-09 12:42:00,
2013-03-09 05:11:00,51.0,37.0,-100.00,South,177,4.0,7.0,58,0.00,,,0.04,0.000000,,2013-03-09 13:11:00,
2013-03-09 05:21:00,51.0,37.0,-100.00,South,177,4.0,7.0,58,0.00,,,0.04,0.000000,,2013-03-09 13:21:00,
2013-03-09 05:31:00,51.0,37.0,-100.00,South,177,4.0,7.0,58,0.00,,,0.04,0.000000,,2013-03-09 13:31:00,
2013-03-09 05:41:00,51.0,37.0,-100.00,South,177,4.0,7.0,58,0.00,,,0.04,0.000000,,2013-03-09 13:41:00,
2013-03-09 06:11:00,50.0,37.0,-100.00,SSE,160,5.0,9.0,60,0.00,,,0.04,0.000000,,2013-03-09 14:11:00,
2013-03-09 06:21:00,50.0,37.0,-100.00,SSE,160,5.0,9.0,60,0.00,,,0.04,0.000000,,2013-03-09 14:21:00,
2013-03-09 06:31:00,50.0,37.0,-100.00,SSE,160,5.0,9.0,60,0.00,,,0.04,0.000000,,2013-03-09 14:31:00,
2013-03-09 06:41:00,50.0,37.0,-100.00,SSE,160,5.0,9.0,60,0.00,,,0.04,0.000000,,2013-03-09 14:41:00,
2013-03-09 07:11:00,49.0,36.0,-100.00,SSW,200,4.0,6.0,61,0.00,,,0.04,43.000000,,2013-03-09 15:11:00,
2013-03-09 07:22:00,49.0,36.0,-100.00,SSW,200,4.0,6.0,61,0.00,,,0.04,43.000000,,2013-03-09 15:22:00,
2013-03-09 07:31:00,49.0,36.0,-100.00,SSW,200,4.0,6.0,61,0.00,,,0.04,43.000000,,2013-03-09 15:31:00,
2013-03-09 07:42:00,49.0,36.0,-100.00,SSW,200,4.0,6.0,61,0.00,,,0.04,43.000000,,2013-03-09 15:42:00,
2013-03-09 08:11:00,55.0,37.0,-100.00,SSE,159,5.0,10.0,51,0.00,,,0.04,180.000000,,2013-03-09 16:11:00,
2013-03-09 08:21:00,55.0,37.0,-100.00,SSE,159,5.0,10.0,51,0.00,,,0.04,180.000000,,2013-03-09 16:21:00,
2013-03-09 08:31:00,55.0,37.0,-100.00,SSE,159,5.0,10.0,51,0.00,,,0.04,180.000000,,2013-03-09 16:31:00,
2013-03-09 08:41:00,55.0,37.0,-100.00,SSE,159,5.0,10.0,51,0.00,,,0.04,180.000000,,2013-03-09 16:41:00,
2013-03-09 09:11:00,61.0,37.0,-100.00,SSW,207,7.0,13.0,41,0.00,,,0.03,443.000000,,2013-03-09 17:11:00,
2013-03-09 09:22:00,61.0,37.0,-100.00,SSW,207,7.0,13.0,41,0.00,,,0.03,443.000000,,2013-03-09 17:22:00,
2013-03-09 09:32:00,61.0,37.0,-100.00,SSW,207,7.0,13.0,41,0.00,,,0.03,443.000000,,2013-03-09 17:32:00,
2013-03-09 09:42:00,61.0,37.0,-100.00,SSW,207,7.0,13.0,41,0.00,,,0.03,443.000000,,2013-03-09 17:42:00,
2013-03-09 10:11:00,64.0,37.0,-100.00,SW,224,9.0,15.0,36,0.00,,,0.00,742.000000,,2013-03-09 18:11:00,
2013-03-09 10:21:00,64.0,37.0,-100.00,SW,224,9.0,15.0,36,0.00,,,0.00,742.000000,,2013-03-09 18:21:00,
2013-03-09 10:31:00,64.0,37.0,-100.00,SW,224,9.0,15.0,36,0.00,,,0.00,742.000000,,2013-03-09 18:31:00,
2013-03-09 10:42:00,64.0,37.0,-100.00,SW,224,9.0,15.0,36,0.00,,,0.00,742.000000,,2013-03-09 18:42:00,
2013-03-09 11:11:00,65.0,35.0,-100.00,West,262,8.0,17.0,33,0.00,,,0.00,776.000000,,2013-03-09 19:11:00,
2013-03-09 11:22:00,65.0,35.0,-100.00,West,262,8.0,17.0,33,0.00,,,0.00,776.000000,,2013-03-09 19:22:00,
2013-03-09 11:32:00,65.0,35.0,-100.00,West,262,8.0,17.0,33,0.00,,,0.00,776.000000,,2013-03-09 19:32:00,
2013-03-09 11:41:00,65.0,35.0,-100.00,West,262,8.0,17.0,33,0.00,,,0.00,776.000000,,2013-03-09 19:41:00,
2013-03-09 12:11:00,67.0,35.0,-100.00,WSW,245,6.0,16.0,31,0.00,,,0.00,778.000000,,2013-03-09 20:11:00,
2013-03-09 12:21:00,67.0,35.0,-100.00,WSW,245,6.0,16.0,31,0.00,,,0.00,778.000000,,2013-03-09 20:21:00,
2013-03-09 12:31:00,67.0,35.0,-100.00,WSW,245,6.0,16.0,31,0.00,,,0.00,778.000000,,2013-03-09 20:31:00,
2013-03-09 12:41:00,67.0,35.0,-100.00,WSW,245,6.0,16.0,31,0.00,,,0.00,778.000000,,2013-03-09 20:41:00,
2013-03-09 13:11:00,68.0,34.0,-100.00,SW,232,4.0,16.0,28,0.00,,,0.00,837.000000,,2013-03-09 21:11:00,
2013-03-09 13:21:00,68.0,34.0,-100.00,SW,232,4.0,16.0,28,0.00,,,0.00,837.000000,,2013-03-09 21:21:00,
2013-03-09 13:31:00,68.0,34.0,-100.00,SW,232,4.0,16.0,28,0.00,,,0.00,837.000000,,2013-03-09 21:31:00,
2013-03-09 13:41:00,68.0,34.0,-100.00,SW,232,4.0,16.0,28,0.00,,,0.00,837.000000,,2013-03-09 21:41:00,
2013-03-09 14:11:00,69.0,31.0,-100.00,NW,308,10.0,16.0,24,0.00,,,0.00,422.000000,,2013-03-09 22:11:00,
2013-03-09 14:21:00,69.0,31.0,-100.00,NW,308,10.0,16.0,24,0.00,,,0.00,422.000000,,2013-03-09 22:21:00,
2013-03-09 14:32:00,69.0,31.0,-100.00,NW,308,10.0,16.0,24,0.00,,,0.00,422.000000,,2013-03-09 22:32:00,
2013-03-09 14:41:00,69.0,31.0,-100.00,NW,308,10.0,16.0,24,0.00,,,0.00,422.000000,,2013-03-09 22:41:00,
2013-03-09 15:11:00,71.0,31.0,-100.00,WNW,285,7.0,20.0,23,0.00,,,0.00,308.000000,,2013-03-09 23:11:00,
2013-03-09 15:21:00,71.0,31.0,-100.00,WNW,285,7.0,20.0,23,0.00,,,0.00,308.000000,,2013-03-09 23:21:00,
2013-03-09 15:32:00,71.0,31.0,-100.00,WNW,285,7.0,20.0,23,0.00,,,0.00,308.000000,,2013-03-09 23:32:00,
2013-03-09 15:41:00,71.0,31.0,-100.00,WNW,285,7.0,20.0,23,0.00,,,0.00,308.000000,,2013-03-09 23:41:00,
2013-03-09 16:11:00,68.0,30.0,-100.00,NNW,330,9.0,13.0,24,0.00,,,0.00,165.000000,,2013-03-10 00:11:00,
2013-03-09 16:22:00,68.0,30.0,-100.00,NNW,330,9.0,13.0,24,0.00,,,0.00,165.000000,,2013-03-10 00:22:00,
2013-03-09 16:32:00,68.0,30.0,-100.00,NNW,330,9.0,13.0,24,0.00,,,0.00,165.000000,,2013-03-10 00:32:00,
2013-03-09 16:42:00,68.0,30.0,-100.00,NNW,330,9.0,13.0,24,0.00,,,0.00,165.000000,,2013-03-10 00:42:00,
2013-03-09 17:11:00,68.0,30.0,-100.00,NW,323,8.0,14.0,24,0.00,,,0.00,99.000000,,2013-03-10 01:11:00,
2013-03-09 17:21:00,68.0,30.0,-100.00,NW,323,8.0,14.0,24,0.00,,,0.00,99.000000,,2013-03-10 01:21:00,
2013-03-09 17:31:00,68.0,30.0,-100.00,NW,323,8.0,14.0,24,0.00,,,0.00,99.000000,,2013-03-10 01:31:00,
2013-03-09 17:41:00,68.0,30.0,-100.00,NW,323,8.0,14.0,24,0.00,,,0.00,99.000000,,2013-03-10 01:41:00,
2013-03-09 18:11:00,67.0,35.0,-100.00,North,359,6.0,13.0,30,0.00,,,-99.99,45.000000,,2013-03-10 02:11:00,
2013-03-09 18:22:00,67.0,35.0,-100.00,North,359,6.0,13.0,30,0.00,,,-99.99,45.000000,,2013-03-10 02:22:00,
2013-03-09 18:31:00,67.0,35.0,-100.00,North,359,6.0,13.0,30,0.00,,,-99.99,45.000000,,2013-03-10 02:31:00,
2013-03-09 18:41:00,67.0,35.0,-100.00,North,359,6.0,13.0,30,0.00,,,-99.99,45.000000,,2013-03-10 02:41:00,
2013-03-09 19:11:00,66.0,35.0,-100.00,NNE,18,8.0,13.0,32,0.00,,,0.00,0.000000,,2013-03-10 03:11:00,
2013-03-09 19:22:00,66.0,35.0,-100.00,NNE,18,8.0,13.0,32,0.00,,,0.00,0.000000,,2013-03-10 03:22:00,
2013-03-09 19:31:00,66.0,35.0,-100.00,NNE,18,8.0,13.0,32,0.00,,,0.00,0.000000,,2013-03-10 03:31:00,
2013-03-09 19:42:00,66.0,35.0,-100.00,NNE,18,8.0,13.0,32,0.00,,,0.00,0.000000,,2013-03-10 03:42:00,
2013-03-09 20:11:00,60.0,39.0,-100.00,NW,322,4.0,12.0,46,0.00,,,0.00,0.000000,,2013-03-10 04:11:00,
2013-03-09 20:21:00,60.0,39.0,-100.00,NW,322,4.0,12.0,46,0.00,,,0.00,0.000000,,2013-03-10 04:21:00,
2013-03-09 20:31:00,60.0,39.0,-100.00,NW,322,4.0,12.0,46,0.00,,,0.00,0.000000,,2013-03-10 04:31:00,
2013-03-09 20:41:00,60.0,39.0,-100.00,NW,322,4.0,12.0,46,0.00,,,0.00,0.000000,,2013-03-10 04:41:00,
2013-03-09 21:11:00,55.0,40.0,-100.00,North,354,4.0,6.0,56,0.00,,,0.00,0.000000,,2013-03-10 05:11:00,
2013-03-09 22:11:00,51.0,38.0,-100.00,NNW,342,4.0,6.0,61,0.00,,,0.00,0.000000,,2013-03-10 06:11:00,
2013-03-09 23:11:00,47.0,37.0,-100.00,ENE,76,2.0,5.0,68,-99.99,,,0.00,0.000000,,2013-03-10 07:11:00,